Flight Track Log - Related Links

Times and Time Zones

All times are in EDT time to prevent confusion due to time zone crossing. See the N33TR flight status page for this flight to view local times or setup timezone preferences in your user account.

Time Position Orientation Groundspeed Altitude Reporting Facility
EDT Latitude Longitude Course Direction KTS MPH feet Rate Location/Type
Wed 03:21:13 PM 29.6767 -95.0772 20° North 146 168 500  Level Houston Center
Wed 03:22:27 PM 29.7331 -95.0533 20° North 248 285 3,500 2,431 Climbing Houston Center
Wed 03:23:09 PM 29.7728 -95.0344 22° Northeast 269 310 5,200 2,654 Climbing Houston Center
Wed 03:24:11 PM 29.8486 -95.0192 10° North 275 316 8,100 2,758 Climbing Houston Center
Wed 03:25:13 PM 29.9275 -95.0000 12° North 290 334 10,900 2,516 Climbing Houston Center
Wed 03:26:15 PM 30.0222 -95.0631 330° Northwest 324 373 13,300 2,160 Climbing Houston Center
Wed 03:27:18 PM 30.1031 -95.1172 330° Northwest 333 383 15,400 1,920 Climbing Houston Center
Wed 03:28:20 PM 30.1889 -95.1708 332° Northwest 345 397 17,300 1,887 Climbing Houston Center
Wed 03:29:22 PM 30.2725 -95.2306 328° Northwest 351 404 19,300 1,935 Climbing Houston Center
Wed 03:30:24 PM 30.3547 -95.2931 327° Northwest 351 404 21,300 1,887 Climbing Houston Center
Wed 03:31:26 PM 30.4347 -95.3528 327° Northwest 345 397 23,200 1,839 Climbing Houston Center
Wed 03:32:28 PM 30.5325 -95.4200 329° Northwest 339 390 25,100 1,210 Climbing Houston Center
Wed 03:33:30 PM 30.6125 -95.4822 326° Northwest 344 396 25,700 435 Climbing Houston Center
Wed 03:34:32 PM 30.7122 -95.5122 345° North 365 420 26,000 145 Climbing Houston Center
Wed 03:35:34 PM 30.8203 -95.5403 347° North 384 442 26,000  Level Houston Center
Wed 03:36:37 PM 30.9325 -95.5642 350° North 399 459 26,000  Level Houston Center
Wed 03:37:39 PM 31.0469 -95.5900 349° North 410 472 26,000  Level Houston Center
Wed 03:38:41 PM 31.1642 -95.6172 349° North 419 482 26,000 -387 Level Houston Center
Wed 03:39:43 PM 31.3053 -95.6486 349° North 425 489 25,200 -871 Descending Houston Center
Wed 03:40:45 PM 31.4225 -95.7058 337° Northwest 452 520 24,200 -581 Descending Houston Center
Wed 03:41:47 PM 31.5297 -95.7775 330° Northwest 445 512 24,000 -95 Descending Houston Center
Wed 03:42:51 PM 31.6378 -95.8492 331° Northwest 443 510 24,000 -439 Level Fort Worth Center
Wed 03:43:50 PM 31.7369 -95.9208 328° Northwest 430 495 23,100 -2,017 Descending Fort Worth Center
Wed 03:44:50 PM 31.8461 -95.9875 333° Northwest 430 495 20,000 -3,223 Descending Fort Worth Center
Wed 03:45:51 PM 31.9514 -96.0569 331° Northwest 436 502 16,600 -3,350 Descending Fort Worth Center
Wed 03:46:50 PM 32.0461 -96.1242 329° Northwest 408 470 13,300 -2,824 Descending Fort Worth Center
Wed 03:47:50 PM 32.1386 -96.1867 330° Northwest 398 458 11,000 -1,438 Descending Fort Worth Center
Wed 03:48:51 PM 32.2247 -96.2419 331° Northwest 363 418 10,400 -500 Descending Fort Worth Center
Wed 03:49:50 PM 32.3150 -96.2950 334° Northwest 330 380 10,000 -202 Descending Fort Worth Center
Wed 03:50:50 PM 32.3842 -96.3358 334° Northwest 315 362 10,000 -298 Level Fort Worth Center
Wed 03:51:51 PM 32.4575 -96.3817 332° Northwest 282 325 9,400 -800 Descending Fort Worth Center
Wed 03:52:50 PM 32.5142 -96.4156 333° Northwest 254 292 8,400 -1,210 Descending Fort Worth Center
Wed 03:53:50 PM 32.5814 -96.4569 333° Northwest 248 285 7,000 -843 Descending Fort Worth Center
Wed 03:54:51 PM 32.6400 -96.4908 334° Northwest 248 285 6,700 -595 Descending Fort Worth Center
Wed 03:55:51 PM 32.6886 -96.5569 311° West 248 285 5,800 -807 Descending Fort Worth Center
Wed 03:56:50 PM 32.7347 -96.6158 313° West 260 299 5,100 -397 Descending Fort Worth Center
Wed 03:57:52 PM 32.8000 -96.6667 327° Northwest 263 303 5,000 -378 Descending Dallas / Fort Worth TRACON
Wed 03:58:57 PM 32.8667 -96.7333 320° Northwest 252 290 4,300 -480 Descending Dallas / Fort Worth TRACON
Wed 03:59:57 PM 32.9167 -96.7833 320° Northwest 237 273 4,000 -142 Descending Dallas / Fort Worth TRACON
Wed 04:01:04 PM 32.9667 -96.8167 331° Northwest 215 247 4,000 -52 Level Dallas / Fort Worth TRACON
Wed 04:01:52 PM 32.9833 -96.8667 292° West 205 236 3,900 -911 Descending Dallas / Fort Worth TRACON
Wed 04:02:56 PM 32.9500 -96.9333 239° Southwest 237 273 2,300 -1,056 Descending Dallas / Fort Worth TRACON
Wed 04:03:57 PM 32.9000 -96.9000 151° Southeast 195 224 1,700 -724 Descending Dallas / Fort Worth TRACON
Wed 04:04:52 PM 32.8667 -96.8667 140° Southeast 167 192 900 -873 Descending Dallas / Fort Worth TRACON
Wed 04:06:00 PM 32.8471 -96.8518 180° South  Level Estimated
Wed 04:13:00 PM 32.8471 -96.8518 180° South  Level Estimated

Login

Don't have an account? Register now (free) for customized features, flight alerts, and more!